| time (UTC) | temp F | wind direction | speed MPH | gust MPH | rain 1hr in | rain 24hr in | rain mn in | humidity % | barometer mb |
| 20260905160347 | 88 | 321 | 4.0 | 5.0 | 0.00 | 0.00 | 0.00 | 55 | 1015.7 |
| 20260905154845 | 88 | 300 | 0.0 | 4.0 | 0.00 | 0.00 | 0.00 | 55 | 1015.7 |
| 20260905153344 | 88 | 315 | 3.0 | 7.0 | 0.00 | 0.00 | 0.00 | 52 | 1015.7 |
| 20260905151829 | 89 | 277 | 2.0 | 7.0 | 0.00 | 0.00 | 0.00 | 53 | 1015.7 |
| 20260905150327 | 89 | 302 | 3.0 | 7.0 | 0.00 | 0.00 | 0.00 | 52 | 1015.7 |
| 20260905144827 | 89 | 289 | 2.0 | 6.0 | 0.00 | 0.00 | 0.00 | 52 | 1015.8 |
| 20260905143347 | 90 | 294 | 2.0 | 7.0 | 0.00 | 0.00 | 0.00 | 49 | 1015.7 |
| 20260905141833 | 90 | 269 | 4.0 | 10.0 | 0.00 | 0.00 | 0.00 | 49 | 1015.8 |
| 20260905140345 | 90 | 329 | 5.0 | 9.0 | 0.00 | 0.00 | 0.00 | 50 | 1015.8 |
| 20260905134845 | 90 | 326 | 3.0 | 7.0 | 0.00 | 0.00 | 0.00 | 48 | 1015.8 |
| 20260905133329 | 90 | 319 | 3.0 | 7.0 | 0.00 | 0.00 | 0.00 | 49 | 1016.1 |
| 20260905131831 | 90 | 265 | 3.0 | 11.0 | 0.00 | 0.00 | 0.00 | 48 | 1016.2 |
| 20260905130346 | 90 | 285 | 6.0 | 9.0 | 0.00 | 0.00 | 0.00 | 54 | 1016.3 |
| 20260905124841 | 89 | 355 | 3.0 | 6.0 | 0.00 | 0.00 | 0.00 | 53 | 1016.4 |
| 20260905123339 | 88 | 317 | 5.0 | 7.0 | 0.00 | 0.00 | 0.00 | 52 | 1016.5 |
| 20260905121837 | 88 | 30 | 4.0 | 9.0 | 0.00 | 0.00 | 0.00 | 55 | 1016.6 |
| 20260905120333 | 88 | 48 | 4.0 | 7.0 | 0.00 | 0.00 | 0.00 | 52 | 1016.7 |
| 20260905114830 | 87 | 24 | 6.0 | 10.0 | 0.00 | 0.00 | 0.00 | 54 | 1017.0 |
| 20260905113340 | 86 | 319 | 2.0 | 12.0 | 0.00 | 0.00 | 0.00 | 56 | 1016.9 |
| 20260905111842 | 86 | 287 | 4.0 | 7.0 | 0.00 | 0.00 | 0.00 | 54 | 1017.1 |
| 20260905110337 | 86 | 325 | 4.0 | 10.0 | 0.00 | 0.00 | 0.00 | 52 | 1017.2 |
| 20260905104828 | 85 | 245 | 4.0 | 9.0 | 0.00 | 0.00 | 0.00 | 54 | 1017.0 |
| 20260905103342 | 84 | 269 | 2.0 | 7.0 | 0.00 | 0.00 | 0.00 | 55 | 1016.9 |
| 20260905101831 | 83 | 301 | 1.0 | 9.0 | 0.00 | 0.00 | 0.00 | 57 | 1017.0 |
| 20260905100338 | 82 | 308 | 2.0 | 6.0 | 0.00 | 0.00 | 0.00 | 58 | 1017.1 |
| 20260905094839 | 82 | 317 | 2.0 | 6.0 | 0.00 | 0.00 | 0.00 | 61 | 1017.2 |
| 20260905093336 | 81 | 316 | 1.0 | 5.0 | 0.00 | 0.00 | 0.00 | 62 | 1017.2 |
| 20260905091831 | 80 | 315 | 2.0 | 4.0 | 0.00 | 0.00 | 0.00 | 66 | 1017.1 |
| 20260905090346 | 79 | 318 | 4.0 | 6.0 | 0.00 | 0.00 | 0.00 | 68 | 1017.2 |
| 20260905084843 | 78 | 328 | 3.0 | 6.0 | 0.00 | 0.00 | 0.00 | 70 | 1017.1 |
| 20260905083337 | 77 | 319 | 3.0 | 5.0 | 0.00 | 0.00 | 0.00 | 71 | 1017.0 |
| 20260905081843 | 77 | 328 | 3.0 | 4.0 | 0.00 | 0.00 | 0.00 | 71 | 1017.0 |
| 20260905080345 | 76 | 322 | 4.0 | 5.0 | 0.00 | 0.00 | 0.00 | 73 | 1016.9 |
| 20260905074842 | 76 | 355 | 1.0 | 4.0 | 0.00 | 0.00 | 0.00 | 75 | 1016.8 |
| 20260905073338 | 75 | 348 | 2.0 | 4.0 | 0.00 | 0.00 | 0.00 | 76 | 1016.6 |
| 20260905071831 | 74 | 355 | 3.0 | 4.0 | 0.00 | 0.00 | 0.00 | 78 | 1016.7 |
| 20260905070343 | 73 | 360 | 1.0 | 4.0 | 0.00 | 0.00 | 0.00 | 78 | 1016.6 |
| 20260905064831 | 73 | 12 | 0.0 | 0.0 | 0.00 | 0.00 | 0.00 | 78 | 1016.5 |
| 20260905063330 | 72 | 11 | 0.0 | 3.0 | 0.00 | 0.00 | 0.00 | 79 | 1016.4 |
| 20260905061843 | 70 | 9 | 3.0 | 4.0 | 0.00 | 0.00 | 0.00 | 82 | 1016.5 |
| 20260905060328 | 69 | 9 | 1.0 | 1.0 | 0.00 | 0.00 | 0.00 | 84 | 1016.4 |
| 20260905054828 | 68 | 9 | 3.0 | 4.0 | 0.00 | 0.00 | 0.00 | 85 | 1016.4 |
| 20260905053342 | 67 | 51 | 0.0 | 0.0 | 0.00 | 0.00 | 0.00 | 85 | 1016.3 |
| 20260905051837 | 67 | 51 | 0.0 | 0.0 | 0.00 | 0.00 | 0.00 | 84 | 1016.1 |
| 20260905050328 | 67 | 51 | 0.0 | 0.0 | 0.00 | 0.00 | 0.00 | 84 | 1015.9 |
| 20260905044832 | 67 | 52 | 0.0 | 0.0 | 0.00 | 0.00 | 0.00 | 84 | 1015.7 |
| 20260905043329 | 67 | 52 | 0.0 | 0.0 | 0.00 | 0.00 | 0.00 | 84 | 1015.5 |
| 20260905041827 | 67 | 52 | 0.0 | 0.0 | 0.00 | 0.00 | 0.00 | 84 | 1015.6 |
| 20260905040324 | 67 | 52 | 0.0 | 0.0 | 0.00 | 0.00 | 0.00 | 84 | 1015.6 |
| 20260905034837 | 67 | 52 | 0.0 | 0.0 | 0.00 | 0.00 | 0.00 | 84 | 1015.5 |
| 20260905033332 | 67 | 51 | 0.0 | 0.0 | 0.00 | 0.00 | 0.00 | 83 | 1015.7 |
| 20260905031831 | 67 | 51 | 0.0 | 3.0 | 0.00 | 0.00 | 0.00 | 83 | 1015.9 |
| 20260905030329 | 67 | 51 | 1.0 | 4.0 | 0.00 | 0.00 | 0.00 | 83 | 1016.0 |
| 20260905024828 | 67 | 66 | 2.0 | 3.0 | 0.00 | 0.00 | 0.00 | 83 | 1016.0 |
| 20260905023343 | 67 | 67 | 0.0 | 0.0 | 0.00 | 0.00 | 0.00 | 82 | 1015.9 |
| 20260905021843 | 68 | 67 | 0.0 | 0.0 | 0.00 | 0.00 | 0.00 | 82 | 1015.9 |
| 20260905020339 | 67 | 65 | 0.0 | 0.0 | 0.00 | 0.00 | 0.00 | 81 | 1016.0 |
| 20260905014838 | 68 | 65 | 0.0 | 0.0 | 0.00 | 0.00 | 0.00 | 80 | 1016.1 |
| 20260905013347 | 68 | 65 | 0.0 | 2.0 | 0.00 | 0.00 | 0.00 | 79 | 1016.1 |
| 20260905011842 | 68 | 65 | 0.0 | 2.0 | 0.00 | 0.00 | 0.00 | 78 | 1016.2 |
| 20260905010340 | 68 | 67 | 2.0 | 3.0 | 0.00 | 0.00 | 0.00 | 77 | 1016.3 |
| 20260905004839 | 69 | 67 | 0.0 | 0.0 | 0.00 | 0.00 | 0.00 | 75 | 1016.4 |
| 20260905003333 | 69 | 67 | 1.0 | 2.0 | 0.00 | 0.00 | 0.00 | 73 | 1016.5 |
| 20260905001826 | 68 | 67 | 2.0 | 3.0 | 0.00 | 0.00 | 0.00 | 70 | 1016.6 |
| 20260905000347 | 68 | 67 | 1.0 | 4.0 | 0.00 | 0.00 | 0.00 | 68 | 1016.7 |
| 20260904234842 | 69 | 73 | 0.0 | 2.0 | 0.00 | 0.00 | 0.00 | 68 | 1016.9 |
| 20260904233335 | 69 | 69 | 0.0 | 0.0 | 0.00 | 0.00 | 0.00 | 68 | 1016.8 |
| 20260904231840 | 70 | 69 | 0.0 | 0.0 | 0.00 | 0.00 | 0.00 | 69 | 1016.8 |
| 20260904230333 | 70 | 69 | 0.0 | 0.0 | 0.00 | 0.00 | 0.00 | 69 | 1016.9 |
| 20260904224847 | 70 | 69 | 0.0 | 1.0 | 0.00 | 0.00 | 0.00 | 67 | 1017.1 |
| 20260904223343 | 71 | 69 | 3.0 | 4.0 | 0.00 | 0.00 | 0.00 | 67 | 1017.2 |
| 20260904221828 | 71 | 74 | 1.0 | 3.0 | 0.00 | 0.00 | 0.00 | 67 | 1017.0 |
| 20260904220342 | 71 | 75 | 0.0 | 3.0 | 0.00 | 0.00 | 0.00 | 69 | 1017.0 |
| 20260904214830 | 72 | 75 | 2.0 | 3.0 | 0.00 | 0.00 | 0.00 | 68 | 1017.1 |
| 20260904213345 | 73 | 36 | 1.0 | 3.0 | 0.00 | 0.00 | 0.00 | 68 | 1017.2 |
| 20260904211842 | 73 | 36 | 0.0 | 3.0 | 0.00 | 0.00 | 0.00 | 67 | 1017.2 |
| 20260904210331 | 74 | 309 | 1.0 | 2.0 | 0.00 | 0.00 | 0.00 | 67 | 1017.3 |
| 20260904204841 | 75 | 309 | 1.0 | 2.0 | 0.00 | 0.00 | 0.00 | 66 | 1017.4 |
| 20260904203337 | 76 | 309 | 0.0 | 2.0 | 0.00 | 0.00 | 0.00 | 65 | 1017.4 |
| 20260904201832 | 76 | 250 | 0.0 | 0.0 | 0.00 | 0.00 | 0.00 | 64 | 1017.5 |
| 20260904200329 | 77 | 250 | 0.0 | 0.0 | 0.00 | 0.00 | 0.00 | 63 | 1017.4 |
| 20260904194832 | 77 | 250 | 0.0 | 0.0 | 0.00 | 0.00 | 0.00 | 59 | 1017.2 |
| 20260904193337 | 77 | 250 | 0.0 | 0.0 | 0.00 | 0.00 | 0.00 | 58 | 1017.2 |
| 20260904191829 | 77 | 250 | 0.0 | 2.0 | 0.00 | 0.00 | 0.00 | 62 | 1017.2 |
| 20260904190343 | 78 | 249 | 0.0 | 4.0 | 0.00 | 0.00 | 0.00 | 64 | 1017.0 |
| 20260904184842 | 80 | 258 | 3.0 | 4.0 | 0.00 | 0.00 | 0.00 | 67 | 1016.9 |
| 20260904183337 | 80 | 267 | 0.0 | 1.0 | 0.00 | 0.00 | 0.00 | 65 | 1016.7 |
| 20260904181835 | 81 | 267 | 0.0 | 0.0 | 0.00 | 0.00 | 0.00 | 60 | 1016.6 |
| 20260904180335 | 83 | 267 | 0.0 | 1.0 | 0.00 | 0.00 | 0.00 | 55 | 1016.5 |
| 20260904174828 | 84 | 267 | 0.0 | 2.0 | 0.00 | 0.00 | 0.00 | 53 | 1016.4 |
| 20260904173326 | 85 | 267 | 1.0 | 3.0 | 0.00 | 0.00 | 0.00 | 52 | 1016.3 |
| 20260904171845 | 86 | 263 | 1.0 | 4.0 | 0.00 | 0.00 | 0.00 | 50 | 1016.2 |
| 20260904170342 | 87 | 246 | 1.0 | 5.0 | 0.00 | 0.00 | 0.00 | 47 | 1016.3 |
| 20260904164835 | 88 | 259 | 2.0 | 4.0 | 0.00 | 0.00 | 0.00 | 45 | 1016.4 |
| 20260904163337 | 89 | 242 | 1.0 | 5.0 | 0.00 | 0.00 | 0.00 | 44 | 1016.4 |
| 20260904161833 | 90 | 271 | 2.0 | 4.0 | 0.00 | 0.00 | 0.00 | 44 | 1016.5 |